Location: Unspecified
(0.0000°N, 0.0000°E)
Time: 03:45:44
(UTC+00:00)

SRMSAT - Pass Details

Date: 20 July 2019
Orbit: 848 x 866 km, 20.0° (Epoch: 16 August)

Event Time Altitude Azimuth Distance (km) Brightness Sun altitude
Exits shadow 03:19:20 26° 36° (NE) 1,614 ? -38.5°
Drops below altitude 10° 03:23:11 10° 75° (ENE) 2,457 ? -37.7°
Sets 03:26:06 0° 87° (E) 3,393 ? -37.0°
